Date,TemperatureHighF,TemperatureAvgF,TemperatureLowF,DewpointHighF,DewpointAvgF,DewpointLowF,HumidityHigh,HumidityAvg,HumidityLow,PressureMaxIn,PressureMinIn,WindSpeedMaxMPH,WindSpeedAvgMPH,GustSpeedMaxMPH,PrecipitationSumIn
2013-1-1,45,41,35,41,36,29,95,82,71,30.51,30.26,1,0,5,0.17
2013-1-2,45,40,37,42,34,30,96,78,64,30.52,30.23,15,1,15,0.04
2013-1-3,45,37,31,36,30,21,93,77,48,30.66,30.50,7,0,7,0.00
2013-1-4,47,36,30,23,22,20,70,57,36,30.75,30.61,15,2,15,0.00
2013-1-5,51,39,27,29,23,19,71,53,33,30.80,30.58,4,0,14,0.00
2013-1-6,52,41,32,39,33,28,93,74,49,30.60,30.35,13,1,13,0.01
2013-1-7,49,38,26,31,27,23,89,64,45,30.81,30.54,15,1,15,0.00
2013-1-8,52,36,22,38,30,20,94,80,54,30.92,30.80,12,0,12,0.00
2013-1-9,57,47,35,50,43,34,96,86,75,30.84,30.69,4,0,4,0.00
2013-1-10,60,52,46,49,39,30,94,63,33,30.83,30.68,7,0,7,0.00
2013-1-11,48,43,41,43,41,37,100,92,69,30.68,30.47,6,0,6,0.21
2013-1-12,66,53,44,60,51,43,98,93,80,30.48,30.31,4,0,4,0.00
2013-1-13,68,60,54,61,57,54,98,92,76,30.32,30.18,10,0,10,0.00
2013-1-14,60,57,48,59,56,47,100,97,95,30.40,30.19,10,0,10,2.20
2013-1-15,48,44,40,47,43,39,97,97,96,30.46,30.35,8,0,8,1.74
2013-1-16,48,44,39,47,43,38,98,97,96,30.40,30.25,5,0,5,0.55
2013-1-17,48,41,35,48,40,33,98,95,87,30.52,30.21,13,1,13,1.51
2013-1-18,43,35,26,33,25,20,93,69,48,30.95,30.52,17,1,17,0.00
2013-1-19,51,34,21,33,27,20,95,78,44,30.94,30.55,10,0,10,0.00
2013-1-20,57,41,26,36,30,24,100,68,37,30.55,30.36,18,2,18,0.00
2013-1-21,54,39,26,34,24,10,91,60,35,30.41,30.21,29,3,29,0.00
2013-1-22,33,27,20,13,3,-2,50,36,25,30.75,30.34,23,3,23,0.00
2013-1-23,40,27,17,20,12,3,77,54,42,30.87,30.49,13,1,13,0.00
2013-1-24,41,29,20,29,12,5,82,51,34,31.00,30.40,24,3,24,0.00
2013-1-25,24,21,19,21,14,6,91,75,55,31.02,30.62,11,0,11,0.00
2013-1-26,41,31,19,29,24,17,94,77,57,30.86,30.60,14,0,14,0.07
2013-1-27,39,30,20,28,24,17,90,76,65,31.07,30.86,8,0,8,0.05
2013-1-28,51,39,32,42,35,28,95,86,69,30.95,30.60,11,0,11,0.07
2013-1-29,68,49,31,55,43,30,98,82,53,30.60,30.27,9,0,9,0.00
2013-1-30,66,61,49,62,58,47,97,92,83,30.28,29.42,13,3,20,2.21
2013-1-31,49,38,29,47,27,19,93,64,48,30.30,29.50,27,5,27,0.02
2013-2-1,37,27,18,31,12,4,83,54,37,30.87,30.19,25,3,25,0.01
2013-2-2,36,27,16,28,16,10,84,63,42,30.92,30.49,12,1,12,0.00
2013-2-3,43,36,29,29,26,21,90,69,53,30.49,30.22,27,4,27,0.00
2013-2-4,44,34,27,27,21,16,84,61,46,30.52,30.36,14,1,23,0.00
2013-2-5,56,39,28,38,30,24,92,73,49,30.37,30.26,25,2,25,0.00
2013-2-6,58,43,28,33,28,21,94,58,25,30.62,30.31,12,1,12,0.00
2013-2-7,43,37,30,36,32,22,94,81,65,30.68,30.42,7,0,7,0.38
2013-2-8,57,43,37,45,35,26,96,77,46,30.42,30.15,24,3,24,0.13
2013-2-9,54,40,28,26,20,17,74,47,26,30.73,30.40,19,2,19,0.00
2013-2-10,52,38,24,37,26,20,93,65,35,30.88,30.56,11,0,11,0.09
2013-2-11,53,46,38,50,41,29,97,85,42,30.56,30.21,13,1,13,0.06
2013-2-12,58,49,42,39,28,24,87,44,27,30.37,30.15,25,2,25,0.04
2013-2-13,44,42,39,43,39,32,96,90,73,30.19,29.85,17,1,17,0.28
2013-2-14,53,41,30,33,29,25,89,64,43,30.39,30.13,18,2,18,0.00
2013-2-15,59,41,25,39,31,24,95,72,40,30.47,30.24,17,2,17,0.00
2013-2-16,39,35,27,29,21,13,68,58,45,30.33,30.14,19,2,19,0.00
2013-2-17,35,28,21,17,9,4,70,46,31,30.73,30.33,24,4,24,0.00
2013-2-18,52,34,16,28,19,9,85,57,34,30.89,30.59,13,1,13,0.00
2013-2-19,51,39,32,42,28,16,93,68,32,30.60,30.15,21,2,26,0.05
2013-2-20,49,39,32,16,12,7,45,34,21,30.52,30.34,23,4,23,0.00
2013-2-21,58,42,27,26,16,12,56,37,20,30.62,30.44,12,1,12,0.00
2013-2-22,41,33,32,33,31,25,100,92,52,30.67,30.54,5,0,5,0.22
2013-2-23,48,39,33,44,37,32,97,92,82,30.57,30.14,7,0,7,0.26
2013-2-24,58,45,33,39,30,22,96,61,31,30.35,30.12,19,2,19,0.00
2013-2-25,42,35,30,28,24,22,78,66,53,30.56,30.35,6,0,6,0.00
2013-2-26,40,36,31,39,33,23,96,88,62,30.55,29.90,12,1,12,1.44
2013-2-27,56,44,36,39,36,32,97,75,49,30.08,29.93,23,2,23,0.02
2013-2-28,45,39,36,32,28,26,76,64,48,30.19,29.96,20,3,20,0.00
2013-3-1,43,38,36,29,27,25,72,63,51,30.26,30.16,14,2,14,0.00
2013-3-2,43,35,30,28,23,17,80,63,49,30.31,30.17,18,2,18,0.00
2013-3-3,38,31,27,20,17,14,63,56,46,30.42,30.29,19,4,20,0.00
2013-3-4,53,37,25,20,15,12,60,44,21,30.55,30.40,18,2,18,0.00
2013-3-5,51,40,32,39,31,19,96,72,40,30.43,29.88,6,0,6,0.85
2013-3-6,40,36,32,39,27,21,96,69,58,30.49,29.87,30,6,30,0.02
2013-3-7,45,37,33,29,26,23,74,64,52,30.68,30.48,23,4,23,0.00
2013-3-8,53,41,34,28,25,23,66,54,36,30.73,30.60,20,3,20,0.00
2013-3-9,63,45,27,35,29,22,86,56,31,30.74,30.57,8,0,8,0.00
2013-3-10,66,48,30,40,33,26,91,60,35,30.63,30.46,12,0,12,0.00
2013-3-11,59,50,41,53,39,25,91,67,43,30.49,30.08,8,0,8,0.26
2013-3-12,57,52,43,54,43,32,97,73,45,30.21,29.90,17,2,17,1.16
2013-3-13,49,40,32,32,25,16,70,54,40,30.52,30.19,22,4,25,0.00
2013-3-14,49,37,28,22,17,14,60,46,30,30.69,30.51,23,4,23,0.00
2013-3-15,63,46,27,39,28,17,73,49,38,30.58,30.15,18,2,18,0.00
2013-3-16,79,58,39,53,43,33,86,61,34,30.15,29.78,25,3,27,0.00
2013-3-17,58,48,38,51,44,35,94,87,77,30.44,29.99,13,1,13,0.02
2013-3-18,38,36,34,35,34,32,95,93,90,30.50,30.23,6,0,6,0.31
2013-3-19,61,46,32,42,27,10,97,56,22,30.37,30.18,28,4,28,0.00
2013-3-20,56,44,34,24,15,9,52,31,19,30.39,30.06,20,3,20,0.00
2013-3-21,41,33,26,28,15,10,67,48,35,30.40,30.06,20,3,20,0.00
2013-3-22,54,35,20,23,16,11,68,47,25,30.52,30.33,13,1,13,0.00
2013-3-23,56,44,35,36,27,16,81,53,34,30.40,30.17,8,0,8,0.00
2013-3-24,41,37,33,38,34,31,95,90,77,30.23,29.82,9,0,9,1.02
2013-3-25,43,36,32,32,27,22,95,72,45,30.16,29.85,25,4,25,0.05
2013-3-26,43,38,34,28,26,23,69,61,52,30.53,30.16,19,4,19,0.00
2013-3-27,45,38,33,27,23,21,74,57,43,30.66,30.52,18,2,18,0.00
2013-3-28,52,41,32,28,24,21,67,52,37,30.67,30.58,20,2,20,0.00
2013-3-29,60,43,24,30,25,20,92,54,24,30.74,30.52,17,1,17,0.00
2013-3-30,64,50,33,34,31,26,85,51,29,30.56,30.32,9,0,10,0.00
2013-3-31,61,50,44,55,46,33,96,85,57,30.32,30.00,7,0,9,0.24
2013-4-1,63,54,43,49,41,33,87,64,44,30.22,30.04,21,3,21,0.00
2013-4-2,57,45,29,33,24,18,87,48,24,30.46,30.22,16,2,16,0.00
2013-4-3,58,46,34,25,19,15,51,34,21,30.63,30.46,15,1,15,0.00
2013-4-4,45,37,33,33,25,15,95,64,32,30.68,30.34,11,0,12,1.03
2013-4-5,62,47,34,45,36,33,97,71,38,30.38,30.25,15,1,15,0.22
2013-4-6,68,50,31,41,35,28,91,60,34,30.56,30.34,10,0,10,0.00
2013-4-7,71,54,38,49,41,33,88,62,43,30.51,30.29,17,1,17,0.00
2013-4-8,79,60,41,56,48,38,95,67,43,30.38,30.18,18,1,18,0.00
2013-4-9,84,66,47,60,53,45,96,65,37,30.34,30.15,14,1,14,0.00
2013-4-10,87,70,52,61,56,50,95,66,38,30.19,29.98,13,1,13,0.00
2013-4-11,81,68,54,63,58,51,95,72,47,30.02,29.76,6,1,18,0.36
2013-4-12,78,67,58,65,55,39,98,70,32,29.87,29.65,21,3,21,0.98
2013-4-13,75,62,51,43,38,34,59,43,25,30.17,29.87,17,2,17,0.00
2013-4-14,78,60,40,49,42,35,89,54,28,30.30,30.15,13,1,13,0.00
2013-4-15,63,56,52,56,53,49,96,91,60,30.43,30.17,9,0,9,0.47
2013-4-16,78,65,56,64,58,54,97,82,57,30.51,30.31,12,0,12,0.00
2013-4-17,81,67,57,63,59,55,96,76,49,30.35,30.21,7,0,7,0.01
2013-4-18,80,67,58,64,60,56,97,78,49,30.26,30.04,13,1,14,0.00
2013-4-19,68,64,52,66,60,40,96,88,65,30.04,29.71,16,1,16,1.23
2013-4-20,62,51,41,41,32,26,69,49,30,30.55,29.98,18,2,18,0.00
2013-4-21,62,48,34,40,34,28,88,61,40,30.82,30.55,11,1,11,0.00
2013-4-22,65,50,38,38,33,29,83,56,30,30.78,30.54,12,1,12,0.00
2013-4-23,72,56,42,52,44,34,85,66,45,30.58,30.30,10,0,10,0.00
2013-4-24,71,53,43,58,49,41,97,86,60,30.33,30.16,16,1,16,0.00
2013-4-25,70,55,40,50,36,28,81,52,22,30.53,30.22,4,1,19,0.00
2013-4-26,69,58,37,44,39,31,85,52,33,30.71,30.54,7,0,11,0.00
2013-4-27,65,57,51,54,48,43,94,74,50,30.61,30.46,6,0,6,0.06
2013-4-28,55,53,52,54,52,51,97,96,94,30.46,30.26,4,0,5,0.88
2013-4-29,68,58,52,60,55,51,98,89,74,30.29,30.14,7,0,7,0.11
2013-4-30,75,62,52,60,56,51,97,82,56,30.36,30.17,8,0,8,0.00
2013-5-1,67,60,55,57,54,50,93,79,67,30.52,30.35,7,1,10,0.00
2013-5-2,65,58,54,57,52,48,89,81,74,30.54,30.44,11,0,11,0.00
2013-5-3,66,58,52,52,49,44,93,74,54,30.49,30.36,15,1,15,0.00
2013-5-4,64,53,47,49,45,41,87,74,56,30.39,30.26,15,1,15,0.00
2013-5-5,53,51,48,52,46,37,95,81,60,30.32,30.16,15,2,15,0.14
2013-5-6,64,56,52,60,54,51,98,94,84,30.19,29.99,13,1,13,1.51
2013-5-7,68,56,52,60,53,50,98,92,64,30.12,30.00,15,0,15,0.25
2013-5-8,61,55,52,60,54,51,97,96,93,30.22,30.09,5,0,5,0.25
2013-5-9,80,62,45,64,54,44,99,78,45,30.30,30.14,10,0,10,0.00
2013-5-10,82,66,50,65,57,48,98,76,50,30.23,30.01,14,0,14,0.00
2013-5-11,77,67,61,64,61,56,97,81,57,30.04,29.83,14,1,14,0.01
2013-5-12,66,59,44,56,42,33,80,54,33,30.23,29.90,17,2,17,0.00
2013-5-13,65,50,34,42,34,29,94,58,28,30.45,30.23,19,1,19,0.00
2013-5-14,73,54,33,50,41,31,94,65,39,30.54,30.27,13,1,13,0.00
2013-5-15,92,65,45,66,53,43,96,69,31,30.27,30.00,15,1,17,0.00
2013-5-16,85,72,58,61,56,51,85,60,39,30.06,29.96,16,1,16,0.00
2013-5-17,83,69,54,68,60,52,97,76,46,30.20,30.05,6,0,6,0.01
2013-5-18,70,65,58,66,62,56,97,92,83,30.24,30.16,6,0,6,0.18
2013-5-19,76,66,63,71,65,62,98,95,80,30.23,30.11,11,0,11,0.66
2013-5-20,81,67,64,72,65,63,99,95,69,30.20,30.07,4,0,6,0.33
2013-5-21,88,72,60,73,66,59,99,83,56,30.14,29.94,8,0,8,0.01
2013-5-22,83,69,62,73,65,61,98,90,64,30.04,29.90,17,0,17,0.49
2013-5-23,78,68,61,71,64,60,98,90,72,30.02,29.83,18,0,18,0.49
2013-5-24,66,60,52,60,47,36,96,64,37,30.39,29.92,22,2,22,0.00
2013-5-25,74,60,47,44,38,33,75,47,24,30.51,30.35,23,1,23,0.00
2013-5-26,78,64,54,54,47,40,82,57,35,30.45,30.30,10,0,10,0.00
2013-5-27,81,65,47,62,54,45,95,71,49,30.47,30.26,13,0,13,0.00
2013-5-28,85,70,56,69,62,54,97,76,51,30.34,30.20,13,1,13,0.00
2013-5-29,88,72,59,69,63,57,97,75,48,30.31,30.19,12,1,12,0.00
2013-5-30,86,71,55,69,62,53,98,76,51,30.35,30.23,11,1,12,0.00
2013-5-31,86,72,57,70,63,56,98,76,51,30.30,30.14,12,1,12,0.00
2013-6-1,88,73,59,70,64,57,97,76,48,30.18,30.03,14,1,14,0.00
2013-6-2,78,70,64,71,66,61,96,88,73,30.07,29.93,11,1,11,0.11
2013-6-3,83,73,66,71,65,61,98,79,50,30.03,29.87,14,1,14,0.11
2013-6-4,78,68,59,66,62,57,94,80,63,30.20,30.01,6,0,6,0.00
2013-6-5,70,65,58,64,62,56,97,90,79,30.24,30.12,7,0,7,0.00
2013-6-6,74,67,63,72,66,62,99,96,90,30.14,29.85,6,0,6,2.26
2013-6-7,78,70,64,71,67,61,99,90,74,29.88,29.64,9,0,13,0.77
2013-6-8,83,72,62,71,65,61,97,80,56,30.15,29.86,7,0,8,0.16
2013-6-9,88,74,63,72,68,62,98,84,54,30.21,30.05,14,0,14,0.03
2013-6-10,82,72,67,74,69,65,98,91,72,30.13,29.86,17,1,17,0.02
2013-6-11,84,72,61,67,64,60,98,78,52,30.03,29.92,13,1,13,0.04
2013-6-12,95,76,60,79,68,59,98,81,46,30.04,29.86,11,0,11,0.06
2013-6-13,91,73,69,75,69,59,95,88,50,29.88,29.53,8,1,23,0.08
2013-6-14,79,71,59,60,56,54,87,61,46,30.13,29.79,15,2,18,0.06
2013-6-15,86,70,53,66,60,52,98,73,39,30.26,30.10,7,0,9,0.05
2013-6-16,86,73,59,72,65,57,97,79,57,30.19,30.02,12,1,12,0.03
2013-6-17,82,73,68,74,69,65,97,89,67,30.07,29.94,14,0,14,0.05
2013-6-18,78,71,68,73,68,64,98,92,78,29.98,29.81,9,0,9,0.02
2013-6-19,82,71,59,71,65,58,98,84,55,30.20,29.96,9,0,9,0.02
2013-6-20,82,71,64,70,66,62,97,84,60,30.33,30.20,8,0,8,0.02
2013-6-21,86,72,61,70,64,60,97,78,53,30.37,30.25,7,0,8,0.01
2013-6-22,87,72,56,71,63,54,98,77,50,30.35,30.18,7,0,7,0.01
2013-6-23,90,76,66,73,68,64,97,79,49,30.26,30.12,7,0,7,0.00
2013-6-24,87,74,65,74,69,64,98,85,60,30.23,30.09,12,0,15,0.01
2013-6-25,90,73,65,78,69,64,98,88,56,30.17,30.02,12,0,14,0.01
2013-6-26,88,71,64,77,68,63,98,92,64,30.06,29.93,7,0,7,0.00
2013-6-27,86,74,66,76,70,66,99,87,62,29.99,29.71,10,0,10,0.25
2013-6-28,90,76,65,73,68,62,98,79,51,29.75,29.53,21,1,21,0.08
2013-6-29,87,74,64,72,68,62,98,82,56,29.71,29.57,11,0,11,0.01
2013-6-30,88,75,67,74,69,65,97,84,57,29.85,29.68,9,0,9,0.02
2013-7-1,81,72,67,72,69,66,97,88,70,30.01,29.83,7,0,7,0.03
2013-7-2,74,70,68,73,69,66,98,97,94,30.24,29.99,8,0,12,3.37
2013-7-3,80,72,68,75,71,68,99,96,80,30.30,30.19,7,0,7,1.74
2013-7-4,86,74,68,76,71,68,99,92,64,30.32,30.19,12,0,12,0.64
2013-7-5,85,74,69,76,71,69,99,91,70,30.30,30.21,10,1,10,0.24
2013-7-6,86,75,69,74,71,68,99,87,64,30.29,30.15,9,0,11,0.17
2013-7-7,81,73,68,76,71,67,98,94,76,30.23,30.09,10,0,10,1.76
2013-7-8,89,76,67,75,70,67,99,83,59,30.25,30.12,7,0,7,0.01
2013-7-9,91,79,69,76,72,68,98,81,56,30.18,30.03,7,0,7,0.00
2013-7-10,87,74,68,77,71,67,98,90,69,30.08,29.92,11,0,11,0.18
2013-7-11,83,74,69,76,71,68,99,93,75,29.99,29.88,8,0,9,0.01
2013-7-12,80,72,65,72,68,63,98,88,71,30.10,29.88,10,0,10,0.00
2013-7-13,77,71,65,72,68,63,98,91,81,30.23,30.09,8,0,8,0.00
2013-7-14,86,76,70,75,71,69,98,87,65,30.38,30.22,9,1,9,0.19
2013-7-15,91,77,65,76,70,64,98,81,52,30.40,30.28,6,0,6,0.00
2013-7-16,95,77,63,80,70,62,99,82,51,30.36,30.21,4,0,9,0.16
2013-7-17,90,75,69,79,72,68,98,92,65,30.28,30.14,9,0,9,1.58
2013-7-18,94,79,67,79,73,66,99,84,54,30.23,30.03,5,0,5,0.01
2013-7-19,89,77,71,78,74,67,98,91,65,30.09,29.96,18,0,18,0.77
2013-7-20,87,75,70,78,72,69,99,92,69,30.02,29.91,23,0,23,0.55
2013-7-21,82,72,68,76,71,68,99,95,75,30.04,29.94,8,0,8,0.34
2013-7-22,86,75,70,76,72,69,99,91,66,30.01,29.81,7,0,8,0.61
2013-7-23,89,77,68,74,70,67,99,82,52,29.84,29.71,11,1,11,0.23
2013-7-24,88,76,66,73,68,65,98,78,52,29.86,29.74,10,0,10,0.00
2013-7-25,82,73,65,70,67,63,96,81,62,30.09,29.85,9,0,9,0.04
2013-7-26,84,72,62,72,66,60,96,82,64,30.18,30.05,8,0,8,0.00
2013-7-27,72,69,66,71,68,65,99,96,92,30.08,29.96,8,0,8,1.89
2013-7-28,85,73,66,75,69,64,98,88,63,30.05,29.94,8,0,8,0.04
2013-7-29,86,72,59,71,63,58,98,76,48,30.26,30.04,7,0,7,0.00
2013-7-30,82,70,58,69,63,56,97,80,54,30.33,30.23,4,0,5,0.00
2013-7-31,72,68,66,68,66,65,98,94,84,30.25,30.08,2,0,4,0.10
2013-8-1,88,75,68,74,69,66,98,84,53,30.08,29.89,6,0,7,0.00
2013-8-2,88,74,62,73,66,60,98,79,52,30.07,29.96,5,0,6,0.00
2013-8-3,88,74,64,76,68,62,98,82,55,30.07,29.93,9,0,9,0.00
2013-8-4,86,74,67,70,65,60,97,76,45,30.10,29.94,12,0,12,0.04
2013-8-5,84,71,59,71,64,57,97,80,60,30.16,30.01,8,0,8,0.00
2013-8-6,80,73,68,72,69,67,96,87,72,30.09,30.01,8,0,8,0.00
2013-8-7,76,72,69,73,70,68,97,94,89,30.13,30.06,10,0,10,0.05
2013-8-8,84,74,70,76,71,69,99,92,72,30.11,30.01,12,0,12,0.19
2013-8-9,90,77,71,79,73,69,99,88,65,30.07,29.95,11,1,11,0.00
2013-8-10,86,75,69,78,72,68,99,91,71,30.12,30.03,9,0,9,0.38
2013-8-11,88,75,66,78,72,66,99,90,66,30.17,30.05,11,0,11,0.22
2013-8-12,90,76,68,77,71,67,98,86,55,30.09,29.94,9,0,9,1.37
2013-8-13,84,72,67,77,70,66,99,92,67,29.98,29.80,11,0,11,0.36
2013-8-14,77,69,59,67,60,54,93,74,48,30.20,29.91,9,0,12,0.00
2013-8-15,77,64,54,63,56,52,97,79,55,30.32,30.20,7,0,7,0.00
2013-8-16,76,62,51,64,57,49,98,84,58,30.36,30.25,6,0,6,0.00
2013-8-17,68,62,55,63,59,54,97,91,75,30.37,30.29,8,0,8,0.17
2013-8-18,76,68,63,70,66,62,98,92,78,30.36,30.24,7,0,7,0.17
2013-8-19,75,69,65,71,67,64,98,94,84,30.30,30.16,7,0,7,0.85
2013-8-20,84,72,64,74,68,63,99,90,70,30.28,30.17,6,0,6,0.01
2013-8-21,84,73,67,75,70,66,99,90,70,30.29,30.15,7,0,7,0.01
2013-8-22,90,74,63,73,68,62,99,83,52,30.21,30.03,9,0,9,0.01
2013-8-23,86,72,64,75,68,62,99,89,60,30.19,29.98,10,0,10,0.06
2013-8-24,82,68,57,64,60,56,98,77,49,30.45,30.18,11,0,11,0.00
2013-8-25,82,66,54,67,59,52,98,79,45,30.56,30.41,6,0,6,0.00
2013-8-26,88,69,53,71,61,52,98,80,45,30.49,30.20,9,0,9,0.01
2013-8-27,88,74,60,73,67,59,98,81,56,30.22,30.01,13,0,13,0.00
2013-8-28,90,78,70,78,71,67,95,82,54,30.03,29.86,10,0,10,0.00
2013-8-29,89,78,71,77,72,68,95,82,64,30.02,29.84,10,0,10,0.07
2013-8-30,87,76,69,73,70,68,98,84,59,30.07,29.93,8,0,8,0.01
2013-8-31,88,72,67,77,69,65,98,91,64,29.97,29.84,23,0,23,0.89
2013-9-1,79,70,66,75,69,66,99,97,81,29.94,29.84,9,0,17,0.28
2013-9-2,89,75,64,75,70,64,100,85,53,29.94,29.79,10,0,10,0.01
2013-9-3,88,75,64,72,67,60,99,79,51,30.02,29.81,11,0,11,0.00
2013-9-4,87,70,56,70,62,55,98,78,46,30.19,30.01,7,0,7,0.01
2013-9-5,88,70,56,67,60,55,98,75,42,30.22,30.12,11,0,11,0.01
2013-9-6,80,67,57,67,61,56,97,82,56,30.30,30.19,6,0,6,0.00
2013-9-7,83,68,55,70,62,53,98,85,60,30.27,30.05,10,0,10,0.00
2013-9-8,87,71,58,73,65,57,99,84,50,30.07,29.97,8,0,8,0.01
2013-9-9,86,72,61,73,67,60,100,86,61,30.23,30.06,5,0,8,0.00
2013-9-10,89,74,63,75,68,62,99,84,56,30.31,30.18,4,0,8,0.00
2013-9-11,89,72,64,77,69,63,99,92,64,30.26,30.12,12,0,12,0.06
2013-9-12,90,74,63,74,69,63,99,84,55,30.13,29.84,11,0,11,0.01
2013-9-13,78,70,60,66,58,49,93,69,42,30.02,29.80,15,1,15,0.00
2013-9-14,78,61,47,59,51,45,95,71,42,30.31,30.01,9,0,12,0.00
2013-9-15,79,61,46,64,55,45,97,82,53,30.43,30.27,10,0,10,0.00
2013-9-16,81,65,54,68,59,53,98,82,56,30.36,30.19,10,0,10,0.00
2013-9-17,70,60,51,59,54,49,97,83,62,30.51,30.35,11,1,11,0.01
2013-9-18,67,59,52,59,55,50,96,86,69,30.52,30.37,7,0,7,0.00
2013-9-19,74,64,58,66,61,56,97,90,74,30.38,30.21,6,0,6,0.01
2013-9-20,84,68,63,72,66,62,98,92,64,30.22,30.01,11,0,11,0.67
2013-9-21,69,66,60,69,65,59,99,98,95,30.03,29.75,9,0,9,0.67
2013-9-22,73,63,55,61,56,52,98,78,56,30.05,29.82,13,1,13,0.01
2013-9-23,74,60,51,60,54,48,97,80,58,30.24,30.05,7,0,8,0.00
2013-9-24,80,63,52,66,58,50,98,84,55,30.26,30.05,6,0,6,0.00
2013-9-25,70,59,52,64,57,51,98,93,74,30.08,29.99,5,0,5,0.11
2013-9-26,78,64,56,63,58,54,98,83,50,30.19,30.04,9,0,9,0.00
2013-9-27,76,60,49,61,54,47,100,82,54,30.39,30.19,8,0,8,0.00
2013-9-28,71,59,50,59,54,48,97,85,61,30.44,30.35,8,0,8,0.00
2013-9-29,74,59,48,61,54,46,97,85,60,30.40,30.21,4,0,6,0.00
2013-9-30,79,62,50,63,56,48,98,84,48,30.27,30.14,7,0,7,0.00
2013-10-1,83,63,50,66,57,48,98,83,46,30.30,30.16,7,0,9,0.01
2013-10-2,84,64,51,67,58,50,99,82,47,30.31,30.17,8,0,8,0.00
2013-10-3,83,67,55,68,61,54,98,82,52,30.26,30.15,7,0,7,0.01
2013-10-4,89,68,54,70,62,53,99,83,47,30.26,30.14,11,0,11,0.00
2013-10-5,88,70,57,70,63,56,98,81,48,30.23,30.09,8,0,8,0.00
2013-10-6,83,68,57,69,62,56,98,84,55,30.13,29.96,10,0,10,0.00
2013-10-7,71,65,55,68,59,48,98,83,63,30.16,29.83,12,0,12,1.68
2013-10-8,68,58,51,52,47,44,80,68,52,30.40,30.16,16,1,16,0.00
2013-10-9,72,54,40,51,45,39,100,76,45,30.51,30.38,1,0,10,0.00
2013-10-10,69,58,46,60,54,44,97,85,74,30.38,30.15,3,0,14,0.14
2013-10-11,74,64,55,61,57,53,95,79,63,30.15,30.02,3,0,11,0.00
2013-10-12,70,65,60,63,62,58,95,88,74,30.22,30.08,3,0,8,0.00
2013-10-13,70,64,59,64,61,58,97,91,75,30.38,30.21,5,0,5,0.04
2013-10-14,73,63,56,63,59,54,98,88,65,30.42,30.30,11,0,11,0.20
2013-10-15,72,60,52,57,54,51,96,82,51,30.39,30.22,7,0,7,0.00
2013-10-16,74,60,49,62,55,48,98,86,61,30.26,30.09,8,0,8,0.00
2013-10-17,65,61,57,63,60,56,98,96,94,30.11,29.92,5,0,9,0.05
2013-10-18,71,58,49,56,49,42,95,73,48,30.23,30.03,9,0,9,0.00
2013-10-19,62,55,50,58,53,48,97,93,84,30.15,29.96,6,0,6,0.01
2013-10-20,67,51,39,48,40,36,89,68,39,30.37,30.13,7,0,7,0.00
2013-10-21,70,49,33,53,43,32,97,81,51,30.46,30.24,10,0,10,0.00
2013-10-22,71,56,48,55,50,46,97,81,47,30.26,29.94,13,0,13,0.01
2013-10-23,61,50,39,53,41,31,97,74,40,30.27,29.85,23,2,23,0.00
2013-10-24,54,44,35,35,32,28,80,65,46,30.51,30.27,23,1,23,0.00
2013-10-25,49,39,30,34,30,25,92,69,47,30.77,30.50,15,1,15,0.00
2013-10-26,58,40,23,38,30,21,100,70,40,30.75,30.41,12,1,12,0.00
2013-10-27,70,52,36,47,40,33,94,68,38,30.42,30.25,10,0,10,0.00
2013-10-28,62,51,39,54,48,37,96,88,74,30.53,30.36,6,0,6,0.00
2013-10-29,72,58,46,57,52,45,98,82,53,30.59,30.45,6,0,6,0.00
2013-10-30,70,60,53,61,56,51,97,88,70,30.48,30.31,5,0,5,0.04
2013-10-31,66,60,55,59,56,54,97,89,73,30.34,29.97,11,0,11,0.00
2013-11-1,76,66,54,63,60,52,94,81,58,29.97,29.67,20,2,20,0.02
2013-11-2,68,57,50,52,41,34,94,56,35,30.15,29.76,19,1,19,0.00
2013-11-3,59,49,37,38,35,30,79,58,41,30.67,30.15,15,1,15,0.00
2013-11-4,54,41,28,34,31,26,94,70,43,30.95,30.67,5,0,7,0.00
2013-11-5,58,45,32,48,39,28,93,79,61,30.99,30.80,5,0,5,0.01
2013-11-6,69,54,46,53,49,44,97,83,55,30.80,30.34,9,0,9,0.01
2013-11-7,61,48,41,56,41,30,100,78,47,30.44,30.19,12,1,16,0.01
2013-11-8,53,42,29,30,26,24,83,56,34,30.68,30.44,15,1,15,0.00
2013-11-9,55,38,25,34,28,22,94,70,39,30.79,30.56,12,0,12,0.00
2013-11-10,67,48,29,43,30,24,92,58,25,30.60,30.43,25,2,25,0.00
2013-11-11,61,44,30,32,27,23,79,53,28,30.66,30.45,10,0,10,0.00
2013-11-12,54,38,29,40,27,16,89,64,49,30.88,30.34,24,2,24,0.00
2013-11-13,46,34,26,20,17,14,76,51,31,31.00,30.86,8,1,24,0.00
2013-11-14,62,37,20,28,21,16,90,59,23,30.93,30.73,8,0,8,0.00
2013-11-15,55,40,23,44,30,20,92,70,43,30.75,30.59,3,0,3,0.04
2013-11-16,56,50,45,53,49,43,100,94,88,30.61,30.48,3,0,3,0.00
2013-11-17,57,55,52,56,54,51,100,97,95,30.48,30.04,5,0,5,0.27
2013-11-18,67,59,48,57,43,27,98,61,29,30.19,29.99,23,2,23,0.15
2013-11-19,54,45,36,29,27,24,73,49,34,30.64,30.19,11,1,16,0.00
2013-11-20,52,41,30,32,28,24,79,60,43,30.88,30.63,11,0,11,0.00
2013-11-21,52,46,41,44,39,30,86,76,64,30.89,30.74,3,0,3,0.00
2013-11-22,60,53,47,55,50,44,96,90,82,30.74,30.31,8,0,12,0.00
2013-11-23,56,50,35,54,36,16,95,61,34,30.52,30.29,24,3,24,0.00
2013-11-24,35,29,22,17,8,3,56,42,28,31.05,30.52,23,2,23,0.00
2013-11-25,36,28,17,26,12,6,78,53,37,31.10,30.86,8,0,8,0.00
2013-11-26,43,36,31,42,34,26,97,93,78,30.86,29.93,7,0,7,2.07
2013-11-27,44,35,26,43,26,12,97,71,54,30.59,29.83,24,4,24,0.07
2013-11-28,45,30,21,22,17,13,80,59,37,30.96,30.58,12,0,14,0.00
2013-11-29,52,34,20,28,22,17,91,65,34,31.12,30.95,8,0,8,0.00
2013-11-30,45,30,20,27,22,17,93,74,46,31.16,30.86,3,0,4,0.00
2013-12-1,58,34,19,35,26,16,100,75,40,30.86,30.43,6,0,6,0.00
2013-12-2,54,40,25,40,33,23,95,77,53,30.43,30.16,5,0,5,0.00
2013-12-3,59,47,35,48,41,32,94,82,62,30.24,30.15,6,0,6,0.00
2013-12-4,57,52,48,54,50,47,100,94,85,30.31,30.20,4,0,4,0.03
2013-12-5,62,57,53,61,56,52,98,98,96,30.32,30.14,6,0,6,0.21
2013-12-6,72,66,58,67,63,56,99,91,76,30.15,30.00,21,2,21,0.62
2013-12-7,58,45,38,57,39,31,96,79,67,30.79,30.08,13,2,13,0.05
2013-12-8,39,33,32,35,31,30,100,93,83,30.86,30.69,7,0,7,0.54
2013-12-9,43,36,32,42,35,30,97,96,95,30.70,30.41,4,0,4,0.41
2013-12-10,46,39,34,44,33,19,98,79,54,30.67,30.26,23,2,23,0.38
2013-12-11,49,35,26,26,21,17,80,59,37,30.86,30.67,15,0,15,0.00
2013-12-12,42,33,25,24,15,9,65,48,26,30.84,30.71,10,1,14,0.00
2013-12-13,50,34,21,25,20,14,84,58,35,30.84,30.69,6,0,8,0.00
2013-12-14,37,36,33,36,32,25,96,86,69,30.70,30.11,5,0,5,0.63
2013-12-15,44,39,35,39,32,26,97,77,58,30.42,30.04,22,3,22,0.01
2013-12-16,55,40,31,35,30,27,90,67,45,30.52,30.39,8,1,15,0.00
2013-12-17,61,42,28,40,32,22,95,70,40,30.46,30.17,33,2,33,0.01
2013-12-18,49,37,27,23,19,17,71,49,27,30.66,30.37,12,2,19,0.00
2013-12-19,60,38,24,32,26,19,86,64,32,30.73,30.60,6,0,8,0.00
2013-12-20,60,43,29,42,34,26,91,73,50,30.60,30.44,5,0,9,0.00
2013-12-21,61,50,37,57,46,34,96,87,74,30.47,30.21,7,0,7,0.00
2013-12-22,65,60,57,64,59,56,100,96,91,30.23,30.12,15,1,15,1.56
2013-12-23,61,52,36,60,48,27,98,86,70,30.45,30.09,14,1,14,0.98
2013-12-24,40,33,23,28,21,11,75,61,42,30.93,30.44,15,2,19,0.00
2013-12-25,37,25,15,16,12,10,86,61,34,31.08,30.90,8,0,8,0.00
2013-12-26,52,32,17,31,20,13,90,67,37,30.91,30.75,15,0,15,0.00
2013-12-27,52,34,22,26,21,17,84,62,33,30.92,30.79,8,0,8,0.00
2013-12-28,52,35,21,37,27,18,94,74,44,30.86,30.57,4,0,4,0.17
2013-12-29,57,45,39,53,41,36,98,85,64,30.58,29.99,19,1,19,0.72
2013-12-30,47,42,38,38,35,31,85,75,67,30.46,30.21,12,1,12,0.00
2013-12-31,45,38,30,34,25,21,85,60,41,30.76,30.43,21,1,21,0.00
2014-1-1,47,32,22,32,24,19,92,74,47,30.83,30.57,7,0,7,0.00
2014-1-2,38,32,26,36,29,18,100,89,61,30.58,30.00,20,1,20,0.19